Regional Weather Roundup
Issued by NWS Sterling, VA

Home | Current Version | Previous Version | Graphics & Text | Print | Product List | Glossary On
Versions: 1 2 3 4 5 6 7 8 9 10 11 12 13 14 15 16 17 18 19 20 21 22 23 24 25 26 27 28 29 30 31 32 33 34 35 36 37 38 39 40 41 42 43 44 45 46 47 48 49 50
000
ASUS41 KLWX 252110
RWRLWX

REGIONAL WEATHER ROUNDUP
NATIONAL WEATHER SERVICE BALTIMORE MD/WASHINGTON DC
500 PM EDT WED MAY 25 2016

Note: "FAIR" indicates few or no clouds below 12,000 feet
with no significant weather and/or obstructions to visibility.
 TC=TEMPERATURE CELSIUS

 * =Non NWS site. Station does not report precipitation (e.g. rain,
    snow, etc.), thunder, or fog.

DCZ001-MDZ009-015-VAZ040>042-051-053>054-252200-
WASHINGTON METRO

CITY           SKY/WX    TMP DP  RH WIND       PRES   REMARKS
WASHINGTON NAT PTSUNNY   86  51  29 W6        30.12S
DULLES         FAIR      85  48  27 VRB5      30.12F
ANDREWS AFB    SUNNY     84  52  33 S13       30.12S
FT BELVOIR     FAIR      86  54  33 VRB2      30.12S
QUANTICO       FAIR      81  60  48 S8        30.12F
COLLEGE PARK*  FAIR      86  48  26 W6        30.11S
LEESBURG*      FAIR      88  55  33 S8        30.13F
MANASSAS*      SUNNY     84  52  32 SW7       30.13S

$$

MDZ006>007-011-014-252200-
BALTIMORE METRO

CITY           SKY/WX    TMP DP  RH WIND       PRES   REMARKS
BWI AIRPORT    PTSUNNY   86  50  28 NW8G17    30.10S
MD SCIENCE CTR   N/A     86  49  27 MISG      30.11R
MARTIN STATE   PTSUNNY   82  61  47 S9        30.12R
ANNAPOLIS      MOSUNNY   83  56  39 S8        30.11S
FORT MEADE*    MOSUNNY   84  52  32 SW5       30.13S

$$

MDZ012-015-019>023-252200-
MARYLAND EASTERN SHORE

CITY           SKY/WX    TMP DP  RH WIND       PRES   REMARKS
OCEAN CITY     PTSUNNY   84  53  34 VRB7      30.11S
SALISBURY      SUNNY     85  53  33 W7        30.12S
BAY BRIDGE AP* MOSUNNY   84  55  37 S9        30.11S
CAMBRIDGE*     CLOUDY    82  52  34 W8        30.12S
EASTON*        SUNNY     84  61  45 SW10      30.16R

$$

MDZ017>025-252200-
SOUTHERN MARYLAND

CITY           SKY/WX    TMP DP  RH WIND       PRES   REMARKS
PATUXENT RIVER MOSUNNY   80  57  45 VRB3      30.12S
ST INIGOES     SUNNY     82  58  43 S9        30.12S
LEONARDTOWN*   SUNNY     84  52  32 W5        30.14S

$$

MDZ003>005-252200-
NORTH CENTRAL MARYLAND

CITY           SKY/WX    TMP DP  RH WIND       PRES   REMARKS
FREDERICK*     SUNNY     84  57  39 W7        30.14F
HAGERSTOWN APT MOSUNNY   85  44  23 VRB7      30.11F
WESTMINSTER*   NOT AVBL

$$

MDZ501>502-252200-
WESTERN MARYLAND

CITY           SKY/WX    TMP DP  RH WIND       PRES   REMARKS
OAKLAND*       SUNNY     73  45  35 W8        30.22F
CUMBERLAND*    SUNNY     86  48  26 CALM      30.14S

$$

VAZ025>031-252200-
SHENANDOAH VALLEY

CITY           SKY/WX    TMP DP  RH WIND       PRES   REMARKS
WINCHESTER*    FAIR      86  50  28 CALM      30.12F
FRONT ROYAL*   FAIR      84  54  34 S5        30.12F
LURAY*         FAIR      82  50  32 CALM      30.13F
NEW MARKET*    FAIR      83  58  42 S5        30.11F
STAUNTON*      FAIR      82  53  36 SE9       30.16F
WAYNESBORO*    FAIR      82  47  29 SW6       30.17F

$$

WVZ021-048>050-054>055-252200-
EASTERN WEST VIRGINIA PANHANDLE

CITY           SKY/WX    TMP DP  RH WIND       PRES   REMARKS
MARTINSBURG    FAIR      84  53  34 S9        30.11F
PETERSBURG*    FAIR      87  51  29 CALM      30.12F

$$

VAZ036>039-050-252200-
CENTRAL FOOTHILLS

CITY           SKY/WX    TMP DP  RH WIND       PRES   REMARKS
CHARLOTTESVILL FAIR      86  56  35 VRB7      30.13F
CULPEPER*      FAIR      86  56  35 SW7       30.13F
ORANGE*        FAIR      86  50  28 SW3       30.15F
GORDONSVILLE*  FAIR      85  55  36 SW7       30.12F
WARRENTON*     FAIR      86  43  22 SW5       30.13S

$$

VAZ055>057-252200-
NORTH AND CENTRAL PIEDMONT

CITY           SKY/WX    TMP DP  RH WIND       PRES   REMARKS
FREDERICKSBRG* FAIR      88  55  33 SW7       30.12S
STAFFORD*      FAIR      84  52  33 W3        30.16F

$$

NCZ024-NYZ072-PAZ021-071-VAZ022-071-252200-
OTHER REGIONAL OBSERVATIONS

CITY           SKY/WX    TMP DP  RH WIND       PRES   REMARKS
NEW YORK CITY  SUNNY     86  44  23 VRB7      30.05S
PHILADELPHIA   PTSUNNY   87  41  19 W16       30.08F
PITTSBURGH     MOSUNNY   82  46  28 CALM      30.12F
ROANOKE        FAIR      84  54  35 S7        30.17F
RICHMOND       PTSUNNY   86  53  32 W10       30.14S
RALEIGH        MOSUNNY   86  57  37 SW10      30.16F

$$

ANZ530>537-252200-
MARINE OBSERVATIONS

STATION/POSITION TIME  TEMP    WIND        PRES
                       AIR SEA DIR/SP/G
                 (UTC) (F)     (DEG/KT/KT) (MB)
THOMAS PT LIGHT  2100   78 64  180/ 12/ 12 1020.9R
BALT KEY BRIDGE  2000   83     270/  5/  6 1019.3F
COVE POINT       2000   83     270/  9/ 12 1020.5F
LEWISETTA        2000   74 68  110/ 10/ 11 1019.6F
SOLOMONS ISLAND  2000   81 65  240/  6/ 12   N/A
PINEY POINT      2000          180/  6/  7   N/A

$$




USA.gov is the U.S. government's official web portal to all federal, state and local government web resources and services.